Location: Unspecified
(0.0000°N, 0.0000°E)
Time: 11:18:08
(UTC+00:00)

A-11 Canister half - Pass Details

Date: 22 November 2019
Orbit: 1515 x 1685 km, 47.2° (Epoch: 13 December)

Event Time Altitude Azimuth Distance (km) Brightness Sun altitude
Rises 23:19:12 0° 352° (N) 4,895 - -68.7°
Reaches altitude 10° 23:24:36 10° 15° (NNE) 3,882 - -69.1°
Maximum altitude 23:29:25 14° 44° (NE) 3,508 - -69.4°
Drops below altitude 10° 23:34:09 10° 74° (ENE) 3,824 - -69.6°
Sets 23:39:17 0° 97° (E) 4,774 - -69.7°
